1497056400.5,59242,19.88,74116.0,2.67,-27.55,-27.83,0,*7D
1497056401.73,59243,19.94,74120.0,2.67,-27.55,-27.89,0,*76
1497056402.98,59244,19.94,74116.5,2.69,-27.39,-27.71,0,*72
1497056404.21,59245,19.94,74118.5,2.69,-27.51,-27.89,0,*7A
1497056405.44,59246,19.94,74116.5,2.69,-27.55,-27.89,0,*7D
1497056406.69,59247,19.94,74116.8,2.69,-27.39,-27.89,0,*76
1497056407.95,59248,19.88,74118.5,2.67,-27.67,-28.05,0,*77
1497056409.17,59249,19.94,74116.5,2.67,-27.55,-27.93,0,*77
1497056410.4,59250,19.88,74116.8,2.67,-27.55,-27.89,0,*74
1497056411.62,59251,19.94,74118.5,2.67,-27.67,-27.93,0,*7F
1497056412.85,59252,19.94,74116.5,2.69,-27.67,-27.93,0,*72
1497056414.08,59253,19.88,74118.5,2.67,-27.67,-27.89,0,*76
1497056415.3,59254,19.94,74122.0,2.67,-27.55,-27.89,0,*70
1497056416.58,59255,19.94,74120.0,2.67,-27.39,-27.83,0,*71
1497056417.82,59256,19.88,74116.0,2.69,-27.35,-27.71,0,*7D
1497056419.05,59257,19.94,74118.5,2.67,-27.67,-27.93,0,*79
1497056420.31,59258,19.94,74116.8,2.69,-27.67,-28.05,0,*78
1497056421.54,59259,19.94,74120.5,2.67,-27.67,-27.89,0,*7C
1497056422.76,59260,19.88,74116.3,2.67,-27.51,-27.89,0,*73
1497056423.99,59261,19.88,74116.8,2.69,-27.55,-27.89,0,*78
1497056425.22,59262,19.88,74118.3,2.69,-27.51,-27.71,0,*78
1497056426.45,59263,19.88,74112.8,2.69,-27.51,-27.89,0,*7E
1497056427.67,59264,19.88,74116.0,2.67,-27.51,-27.89,0,*77
1497056428.9,59265,19.94,74120.8,2.67,-27.67,-27.93,0,*78
1497056430.13,59266,19.88,74116.5,2.69,-27.55,-27.89,0,*7F
1497056431.36,59267,19.94,74120.8,2.69,-27.67,-27.93,0,*74
1497056432.59,59268,19.88,74116.5,2.69,-27.67,-27.93,0,*7B
1497056433.81,59269,19.94,74116.8,2.67,-27.55,-27.93,0,*75
1497056435.04,59270,19.94,74116.8,2.69,-27.67,-27.93,0,*72
1497056436.29,59271,19.94,74120.5,2.69,-27.67,-28.09,0,*7F
1497056437.55,59272,19.88,74116.5,2.67,-27.71,-28.05,0,*79
1497056438.82,59273,19.94,74116.8,2.69,-27.83,-28.05,0,*7B
1497056440.08,59274,19.88,74118.3,2.69,-27.93,-28.09,0,*71
1497056441.33,59275,19.94,74116.3,2.69,-27.71,-28.05,0,*70
1497056442.59,59276,19.88,74116.8,2.69,-27.71,-28.05,0,*73
1497056443.85,59277,19.94,74118.3,2.69,-27.67,-28.05,0,*75
1497056445.11,59278,19.88,74118.5,2.69,-27.67,-28.05,0,*7A
1497056446.34,59279,19.94,74118.8,2.69,-27.67,-27.93,0,*7B
1497056447.57,59280,19.88,74116.3,2.69,-27.71,-27.93,0,*7A
1497056448.79,59281,19.94,74118.5,2.67,-27.71,-27.93,0,*75
1497056450.02,59282,19.88,74116.8,2.67,-27.67,-27.89,0,*7A
1497056451.27,59283,19.94,74118.5,2.69,-27.71,-28.05,0,*79
1497056452.52,59284,19.94,74118.5,2.67,-27.71,-28.09,0,*7C
1497056453.78,59285,19.88,74116.8,2.69,-27.71,-28.05,0,*7F
1497056455.04,59286,19.94,74116.0,2.69,-27.67,-28.05,0,*7B
1497056456.29,59287,19.94,74116.8,2.67,-27.67,-28.05,0,*74
1497056457.55,59288,19.88,74118.5,2.67,-27.67,-28.09,0,*77
1497056458.82,59289,19.94,74116.8,2.67,-27.83,-28.05,0,*70
1497056460.07,59290,19.94,74116.8,2.69,-27.67,-28.09,0,*70
1497056461.35,59291,19.94,74116.3,2.69,-27.83,-28.09,0,*7B
1497056462.62,59292,19.94,74120.0,2.67,-27.83,-28.05,0,*7A
1497056463.87,59293,19.88,74118.5,2.67,-27.71,-28.05,0,*76
1497056465.15,59294,19.88,74116.0,2.67,-27.83,-28.09,0,*70
1497056466.37,59295,19.94,74118.3,2.67,-27.71,-27.93,0,*70
1497056467.59,59296,19.88,74116.3,2.67,-27.67,-27.93,0,*74
1497056468.87,59297,19.88,74116.8,2.69,-27.83,-28.21,0,*77
1497056470.1,59298,19.88,74116.0,2.67,-27.67,-27.93,0,*7A
1497056471.32,59299,19.94,74116.8,2.69,-27.67,-27.93,0,*75
1497056472.55,59300,19.94,74118.0,2.67,-27.67,-27.93,0,*7A
1497056473.81,59301,19.88,74116.3,2.69,-27.71,-28.05,0,*72
1497056475.08,59302,19.94,74122.3,2.69,-27.83,-28.09,0,*70
1497056476.33,59303,19.94,74118.3,2.69,-27.71,-28.09,0,*7C
1497056477.61,59304,19.94,74120.8,2.69,-27.83,-28.09,0,*76
1497056478.86,59305,19.94,74122.3,2.69,-27.89,-28.21,0,*77
1497056480.12,59306,19.88,74116.5,2.67,-27.89,-28.21,0,*7A
1497056481.37,59307,19.88,74116.8,2.69,-27.89,-28.21,0,*75
1497056482.64,59308,19.88,74118.0,2.67,-27.83,-28.21,0,*7E
1497056483.9,59309,19.94,74120.5,2.69,-27.71,-28.09,0,*76
1497056485.16,59310,19.88,74118.5,2.69,-27.93,-28.21,0,*78
1497056486.43,59311,19.94,74120.5,2.69,-27.83,-28.21,0,*78
1497056487.68,59312,19.94,74118.3,2.69,-27.83,-27.93,0,*7D
1497056488.93,59313,19.88,74116.8,2.67,-27.71,-28.05,0,*7F
1497056490.18,59314,19.94,74118.5,2.67,-27.55,-27.83,0,*7F
1497056491.45,59315,19.94,74120.5,2.67,-27.83,-28.09,0,*78
1497056492.71,59316,19.88,74116.3,2.69,-27.71,-28.05,0,*74
1497056493.96,59317,19.88,74116.5,2.67,-27.89,-28.09,0,*70
1497056495.23,59318,19.94,74120.8,2.67,-27.83,-28.05,0,*79
1497056496.49,59319,19.88,74118.0,2.67,-27.67,-28.05,0,*72
1497056497.76,59320,19.94,74120.8,2.67,-27.83,-28.21,0,*74
1497056499.03,59321,19.88,74116.5,2.67,-27.83,-28.05,0,*73
1497056500.29,59322,19.94,74118.5,2.69,-27.71,-28.05,0,*73
1497056501.54,59323,19.88,74116.3,2.67,-27.67,-28.09,0,*77
1497056502.77,59324,19.88,74118.3,2.69,-27.67,-27.93,0,*72
1497056504.02,59325,19.94,74122.5,2.67,-27.71,-28.05,0,*7A
1497056505.25,59326,19.88,74118.0,2.67,-27.67,-27.93,0,*7E
1497056506.5,59327,19.94,74116.5,2.69,-27.71,-28.05,0,*76
1497056507.76,59328,19.88,74118.8,2.67,-27.93,-28.25,0,*79
1497056509.02,59329,19.88,74118.5,2.69,-27.93,-28.21,0,*72
1497056510.29,59330,19.94,74120.5,2.69,-27.83,-28.09,0,*71
1497056511.56,59331,19.88,74116.8,2.67,-27.83,-28.09,0,*7E
1497056512.81,59332,19.94,74118.5,2.67,-27.71,-28.09,0,*70
1497056514.06,59333,19.88,74116.3,2.67,-27.93,-28.25,0,*73
1497056515.29,59334,19.88,74116.8,2.67,-27.89,-28.37,0,*7C
1497056516.56,59335,19.88,74116.5,2.67,-27.83,-28.09,0,*7A
1497056517.78,59336,19.88,74118.0,2.67,-27.71,-27.93,0,*78
1497056519.0,59337,19.88,74116.5,2.67,-27.55,-27.93,0,*7F
1497056520.25,59338,19.94,74120.5,2.67,-27.67,-28.05,0,*71
1497056521.53,59339,19.88,74116.5,2.67,-27.83,-28.25,0,*78
1497056522.78,59340,19.94,74120.8,2.67,-27.93,-28.21,0,*73
1497056524.03,59341,19.88,74118.0,2.67,-27.93,-28.25,0,*76
1497056525.29,59342,19.88,74116.8,2.67,-27.93,-28.21,0,*71
1497056526.54,59343,19.88,74118.3,2.67,-27.71,-28.05,0,*7A
1497056527.79,59344,19.88,74116.8,2.67,-27.71,-28.09,0,*71
1497056529.06,59345,19.88,74118.8,2.67,-27.83,-28.09,0,*7D
1497056530.28,59346,19.88,74116.0,2.67,-27.71,-27.93,0,*7F
1497056531.51,59347,19.94,74120.8,2.67,-27.67,-27.93,0,*79
1497056532.78,59348,19.88,74118.0,2.67,-27.83,-28.21,0,*7A
1497056534.05,59349,19.88,74118.3,2.67,-27.83,-28.05,0,*7D
1497056535.33,59350,19.94,74122.3,2.69,-27.83,-28.09,0,*77
1497056536.55,59351,19.88,74120.3,2.67,-27.71,-27.93,0,*79
1497056537.8,59352,19.88,74118.3,2.67,-27.71,-28.05,0,*7A
1497056539.05,59353,19.88,74118.3,2.67,-27.71,-28.09,0,*77
1497056540.3,59354,19.88,74118.5,2.67,-27.71,-28.05,0,*7C
1497056541.53,59355,19.88,74118.0,2.67,-27.71,-27.93,0,*7D
1497056542.78,59356,19.88,74120.3,2.67,-27.93,-28.25,0,*70
1497056544.03,59357,19.88,74116.3,2.67,-27.89,-28.21,0,*7E
1497056545.26,59358,19.88,74118.5,2.65,-27.77,-27.99,0,*7E
1497056546.49,59359,19.94,74120.8,2.63,-27.93,-28.15,0,*78
1497056547.71,59360,19.88,74120.0,2.65,-27.89,-28.09,0,*72
1497056548.92,59361,19.88,74116.8,2.65,-27.89,-28.15,0,*7E
1497056550.12,59362,19.88,74116.3,2.65,-27.89,-28.15,0,*7D
1497056551.32,59363,19.88,74120.0,2.65,-27.89,-28.15,0,*7C
1497056552.55,59364,19.88,74120.8,2.65,-27.77,-28.09,0,*77
1497056553.78,59365,19.88,74118.3,2.65,-27.77,-28.09,0,*76
1497056554.98,59366,19.94,74120.3,2.65,-27.71,-27.93,0,*7F
1497056556.2,59367,19.88,74120.0,2.65,-27.71,-28.09,0,*72
1497056557.45,59368,19.94,74120.8,2.65,-27.83,-28.09,0,*70
1497056558.65,59369,19.88,74118.5,2.65,-27.89,-28.15,0,*76
1497056559.86,59370,19.94,74122.0,2.65,-27.89,-28.15,0,*7E
1497056561.11,59371,19.94,74122.0,2.67,-27.71,-28.09,0,*77
1497056562.31,59372,19.94,74120.8,2.65,-27.93,-28.15,0,*77
1497056563.54,59373,19.88,74118.0,2.65,-27.77,-28.09,0,*71
1497056564.77,59374,19.88,74116.3,2.65,-27.71,-27.99,0,*76
1497056566.0,59375,19.88,74116.8,2.65,-27.77,-28.09,0,*77
1497056567.25,59376,19.94,74120.0,2.67,-27.93,-28.21,0,*76
1497056568.46,59377,19.88,74120.3,2.65,-27.93,-28.15,0,*72
1497056569.66,59378,19.94,74122.5,2.65,-27.71,-28.15,0,*71
1497056570.89,59379,19.88,74118.5,2.65,-27.93,-28.25,0,*7F
1497056572.14,59380,19.88,74118.8,2.63,-27.99,-28.37,0,*76
1497056573.37,59381,19.94,74122.0,2.65,-27.93,-28.25,0,*78
1497056574.62,59382,19.88,74116.8,2.65,-27.99,-28.25,0,*71
1497056575.85,59383,19.94,74120.8,2.65,-27.99,-28.31,0,*75
1497056577.08,59384,19.88,74118.3,2.65,-27.93,-28.25,0,*7D
1497056578.31,59385,19.88,74120.0,2.65,-27.93,-28.25,0,*7C
1497056579.54,59386,19.88,74116.8,2.63,-27.93,-28.15,0,*7A
1497056580.79,59387,19.88,74118.5,2.63,-27.93,-28.21,0,*7C
1497056582.01,59388,19.94,74120.3,2.65,-27.77,-28.09,0,*75
1497056583.26,59389,19.88,74116.0,2.63,-27.99,-28.37,0,*7F
1497056584.47,59390,19.88,74118.3,2.65,-27.77,-28.15,0,*71
1497056585.72,59391,19.88,74118.5,2.63,-27.67,-27.99,0,*7C
1497056586.94,59392,19.94,74120.3,2.63,-27.77,-28.15,0,*75
1497056588.17,59393,19.88,74118.3,2.65,-27.71,-28.09,0,*79
1497056589.42,59394,19.88,74116.8,2.63,-27.83,-28.15,0,*78
1497056590.67,59395,19.88,74118.5,2.63,-27.93,-28.21,0,*7F
1497056591.94,59396,19.88,74118.5,2.63,-27.99,-28.21,0,*76
1497056593.17,59397,19.88,74116.5,2.65,-27.93,-28.25,0,*7F
1497056594.4,59398,19.88,74120.0,2.63,-27.93,-28.31,0,*73
1497056595.6,59399,19.88,74118.0,2.65,-27.93,-28.15,0,*72
1497056596.86,59400,19.88,74118.3,2.63,-27.67,-27.99,0,*73
1497056598.08,59401,19.88,74118.0,2.65,-27.77,-28.09,0,*73
1497056599.33,59402,19.88,74116.8,2.63,-27.83,-28.15,0,*70
1497056600.56,59403,19.88,74116.0,2.63,-27.93,-28.15,0,*70
1497056601.81,59404,19.88,74116.3,2.63,-27.93,-28.21,0,*70
1497056603.06,59405,19.88,74118.8,2.63,-27.77,-27.99,0,*77
1497056604.26,59406,19.88,74118.3,2.65,-27.77,-28.15,0,*79
1497056605.46,59407,19.88,74120.5,2.65,-27.71,-27.93,0,*7F
1497056606.71,59408,19.88,74118.3,2.63,-27.67,-27.99,0,*7B
1497056607.96,59409,19.88,74116.5,2.63,-27.77,-27.99,0,*7B
1497056609.21,59410,19.88,74116.5,2.63,-27.77,-28.05,0,*79
1497056610.46,59411,19.88,74118.5,2.63,-27.67,-28.05,0,*79
1497056611.73,59412,19.88,74116.3,2.63,-27.83,-28.21,0,*76
1497056612.99,59413,19.88,74120.3,2.63,-27.67,-27.99,0,*71
1497056614.23,59414,19.88,74116.3,2.63,-27.77,-27.99,0,*77
1497056615.49,59415,19.88,74122.0,2.63,-27.77,-28.05,0,*7C
1497056616.74,59416,19.88,74118.5,2.63,-27.67,-27.99,0,*74
1497056618.01,59417,19.88,74118.0,2.63,-27.83,-28.05,0,*75
1497056619.26,59418,19.88,74116.0,2.63,-27.77,-28.05,0,*71
1497056620.53,59419,19.88,74116.3,2.63,-27.83,-28.21,0,*7D
1497056621.8,59420,19.88,74118.0,2.63,-27.83,-28.21,0,*77
1497056623.07,59421,19.88,74118.8,2.63,-27.83,-28.21,0,*76
1497056624.32,59422,19.88,74120.3,2.63,-27.93,-28.21,0,*74
1497056625.55,59423,19.94,74120.3,2.63,-27.93,-28.15,0,*72
1497056626.82,59424,19.88,74122.0,2.63,-27.99,-28.21,0,*78
1497056628.05,59425,19.94,74120.8,2.63,-27.93,-28.15,0,*74
1497056629.3,59426,19.88,74122.0,2.63,-27.93,-28.21,0,*70
1497056630.52,59427,19.88,74116.5,2.63,-27.77,-28.15,0,*7C
1497056631.77,59428,19.94,74122.8,2.63,-27.77,-28.05,0,*72
1497056633.04,59429,19.88,74118.0,2.63,-27.83,-28.05,0,*78
1497056634.29,59430,19.88,74118.0,2.61,-27.83,-28.21,0,*74
1497056635.56,59431,19.94,74124.3,2.63,-27.83,-28.05,0,*71
1497056636.81,59432,19.88,74120.0,2.63,-27.77,-28.05,0,*79
1497056638.07,59433,19.88,74116.8,2.61,-27.61,-27.99,0,*77
1497056639.29,59434,19.88,74118.5,2.61,-27.77,-28.05,0,*7D
1497056640.52,59435,19.88,74122.0,2.61,-27.77,-27.99,0,*76
1497056641.77,59436,19.88,74116.8,2.61,-27.83,-28.05,0,*74
1497056642.97,59437,19.88,74120.3,2.61,-27.93,-28.15,0,*75
1497056644.17,59438,19.88,74116.8,2.61,-27.93,-28.15,0,*7A
1497056645.4,59439,19.88,74120.0,2.61,-27.77,-28.05,0,*70
1497056646.63,59440,19.88,74118.5,2.61,-27.67,-28.05,0,*7F
1497056647.9,59441,19.88,74116.3,2.59,-27.83,-28.09,0,*73
1497056649.15,59442,19.88,74116.8,2.61,-27.83,-28.21,0,*71
1497056650.37,59443,19.88,74116.3,2.61,-27.83,-28.15,0,*77
1497056651.59,59444,19.88,74118.0,2.61,-27.83,-28.15,0,*70
1497056652.82,59445,19.88,74118.0,2.61,-27.77,-27.99,0,*71
1497056654.05,59446,19.88,74116.0,2.61,-27.77,-28.05,0,*78
1497056655.27,59447,19.88,74116.3,2.61,-27.67,-28.05,0,*78
1497056656.53,59448,19.88,74120.3,2.59,-27.89,-28.21,0,*7A
1497056657.75,59449,19.94,74122.3,2.61,-27.83,-28.15,0,*7D
1497056658.98,59450,19.94,74120.3,2.61,-27.67,-27.99,0,*74
1497056660.21,59451,19.88,74116.8,2.61,-27.77,-28.05,0,*7E
1497056661.41,59452,19.88,74116.5,2.61,-27.93,-28.15,0,*76
1497056662.66,59453,19.88,74118.8,2.61,-27.83,-28.21,0,*71
1497056663.91,59454,19.88,74122.0,2.59,-27.89,-28.21,0,*77
1497056665.14,59455,19.88,74118.8,2.61,-27.67,-28.05,0,*7B
1497056666.36,59456,19.88,74120.3,2.61,-27.77,-28.05,0,*79
1497056667.59,59457,19.88,74116.8,2.61,-27.67,-27.99,0,*73
1497056668.82,59458,19.88,74114.8,2.61,-27.77,-27.99,0,*7D
1497056670.05,59459,19.88,74116.8,2.61,-27.93,-28.21,0,*7A
1497056671.25,59460,19.88,74118.3,2.61,-27.93,-28.15,0,*77
1497056672.52,59461,19.94,74122.5,2.59,-27.83,-28.05,0,*7D
1497056673.75,59462,19.88,74122.5,2.61,-27.67,-27.99,0,*75
1497056674.95,59463,19.88,74118.3,2.61,-27.77,-28.15,0,*7E
1497056676.18,59464,19.88,74122.3,2.61,-27.77,-28.05,0,*78
1497056677.41,59465,19.88,74120.3,2.61,-27.93,-28.05,0,*73
1497056678.63,59466,19.88,74118.0,2.61,-27.93,-28.05,0,*70
1497056679.86,59467,19.88,74118.0,2.61,-27.93,-28.05,0,*71
1497056681.14,59468,19.88,74118.5,2.59,-27.99,-28.25,0,*7D
1497056682.36,59469,19.88,74118.3,2.61,-27.99,-28.31,0,*72
1497056683.64,59470,19.88,74122.5,2.59,-27.99,-28.21,0,*70
1497056684.89,59471,19.88,74120.3,2.59,-27.89,-28.21,0,*70
1497056686.12,59472,19.88,74118.8,2.61,-27.83,-28.15,0,*75
1497056687.34,59473,19.88,74120.3,2.61,-27.83,-28.15,0,*74
1497056688.56,59474,19.88,74118.0,2.61,-27.83,-28.15,0,*73
1497056689.79,59475,19.88,74118.8,2.61,-27.77,-27.99,0,*72
1497056690.99,59476,19.94,74120.3,2.61,-27.93,-28.15,0,*70
1497056692.25,59477,19.88,74120.8,2.59,-27.89,-28.21,0,*76
1497056693.49,59478,19.88,74116.5,2.59,-27.71,-28.09,0,*74
1497056694.76,59479,19.88,74120.0,2.59,-27.83,-28.09,0,*78
1497056696.02,59480,19.94,74120.5,2.59,-27.89,-28.05,0,*78
1497056697.27,59481,19.88,74120.3,2.59,-27.71,-28.09,0,*72
1497056698.51,59482,19.88,74120.5,2.59,-27.89,-28.09,0,*76
1497056699.79,59483,19.88,74118.3,2.59,-27.83,-28.09,0,*7D
1497056701.06,59484,19.88,74120.0,2.59,-27.83,-28.09,0,*7A
1497056702.31,59485,19.88,74118.3,2.59,-27.51,-28.05,0,*78
1497056703.58,59486,19.88,74116.3,2.59,-27.83,-28.05,0,*74
1497056704.85,59487,19.88,74120.8,2.59,-27.83,-27.99,0,*7F
1497056706.1,59488,19.88,74116.3,2.59,-27.83,-27.93,0,*7A
1497056707.33,59489,19.88,74120.0,2.59,-27.67,-27.89,0,*7A
1497056708.55,59490,19.88,74118.0,2.59,-27.67,-27.89,0,*72
1497056709.81,59491,19.88,74120.5,2.59,-27.89,-28.05,0,*78
1497056711.03,59492,19.88,74118.8,2.61,-27.77,-28.05,0,*71
1497056712.31,59493,19.94,74120.8,2.59,-27.83,-28.05,0,*70
1497056713.56,59494,19.88,74116.3,2.59,-27.71,-28.05,0,*7A
1497056714.81,59495,19.88,74118.8,2.59,-27.71,-28.09,0,*77
1497056716.08,59496,19.88,74116.8,2.59,-27.83,-28.09,0,*79
1497056717.35,59497,19.88,74116.3,2.59,-27.83,-28.09,0,*78
1497056718.62,59498,19.88,74118.0,2.59,-27.83,-28.05,0,*7B
1497056719.9,59499,19.88,74118.8,2.59,-27.83,-27.99,0,*70
1497056721.13,59500,19.88,74116.0,2.59,-27.67,-27.89,0,*7A
1497056722.35,59501,19.88,74118.5,2.59,-27.55,-27.89,0,*7A
1497056723.6,59502,19.88,74116.0,2.59,-27.71,-28.05,0,*74
1497056724.8,59503,19.88,74118.0,2.61,-27.67,-27.93,0,*79
1497056726.07,59504,19.88,74122.8,2.59,-27.83,-28.05,0,*7F
1497056727.35,59505,19.88,74116.3,2.59,-27.83,-28.05,0,*7E
1497056728.6,59506,19.88,74120.5,2.59,-27.71,-28.09,0,*7C
1497056729.85,59507,19.88,74118.8,2.59,-27.89,-28.09,0,*7A
1497056731.1,59508,19.88,74120.8,2.59,-27.89,-28.09,0,*75
1497056732.35,59509,19.88,74120.8,2.59,-27.71,-28.05,0,*7F
1497056733.6,59510,19.88,74120.3,2.59,-27.67,-28.05,0,*70
1497056734.83,59511,19.88,74120.8,2.61,-27.67,-27.99,0,*70
1497056736.1,59512,19.88,74118.8,2.59,-27.83,-28.09,0,*74
1497056737.36,59513,19.88,74118.5,2.59,-27.71,-28.05,0,*74
1497056738.61,59514,19.88,74116.0,2.59,-27.55,-28.05,0,*75
1497056739.88,59515,19.88,74118.5,2.59,-27.83,-28.21,0,*79
1497056741.16,59516,19.88,74118.8,2.59,-27.83,-28.21,0,*7A
1497056742.41,59517,19.88,74122.8,2.59,-27.71,-28.09,0,*7C
1497056743.66,59518,19.88,74116.3,2.61,-27.61,-27.99,0,*7F
1497056744.91,59519,19.88,74122.8,2.61,-27.83,-27.99,0,*72
1497056746.14,59520,19.88,74118.0,2.61,-27.61,-27.93,0,*7E
1497056747.41,59521,19.88,74120.3,2.59,-27.83,-28.09,0,*74
1497056748.66,59522,19.94,74120.3,2.59,-27.71,-28.05,0,*76
1497056749.93,59523,19.88,74116.5,2.59,-27.83,-28.09,0,*76
1497056751.18,59524,19.88,74118.5,2.59,-27.71,-28.05,0,*70
1497056752.41,59525,19.88,74118.0,2.61,-27.77,-28.05,0,*7C
1497056753.68,59526,19.88,74118.8,2.59,-27.83,-28.09,0,*73
1497056754.93,59527,19.94,74122.0,2.59,-27.71,-27.99,0,*79
1497056756.2,59528,19.88,74118.0,2.59,-27.83,-28.09,0,*7D
1497056757.46,59529,19.88,74116.5,2.59,-27.71,-28.05,0,*7D
1497056758.71,59530,19.88,74120.8,2.59,-27.71,-27.99,0,*7F
1497056759.98,59531,19.88,74118.3,2.59,-27.83,-28.09,0,*75
1497056761.25,59532,19.88,74120.3,2.59,-27.83,-28.05,0,*7A
1497056762.5,59533,19.88,74122.5,2.59,-27.55,-27.99,0,*7A
1497056763.76,59534,19.88,74120.8,2.59,-27.55,-27.99,0,*7D
1497056765.01,59535,19.88,74118.5,2.59,-27.67,-27.99,0,*7D
1497056766.24,59536,19.88,74120.8,2.61,-27.61,-27.93,0,*79
1497056767.44,59537,19.88,74116.3,2.61,-27.67,-27.93,0,*7E
1497056768.69,59538,19.88,74118.5,2.59,-27.71,-28.09,0,*71
1497056769.94,59539,19.88,74120.0,2.59,-27.71,-28.05,0,*7C
1497056771.17,59540,19.88,74120.3,2.61,-27.61,-27.93,0,*78
1497056772.44,59541,19.88,74120.5,2.59,-27.83,-28.05,0,*7E
1497056773.67,59542,19.88,74120.8,2.59,-27.89,-28.15,0,*76
1497056774.92,59543,19.88,74118.5,2.61,-27.83,-27.99,0,*7D
1497056776.17,59544,19.88,74120.5,2.59,-27.89,-28.21,0,*77
1497056777.42,59545,19.88,74122.8,2.59,-27.89,-28.21,0,*76
1497056778.67,59546,19.88,74118.5,2.59,-27.89,-28.21,0,*75
1497056779.95,59547,19.88,74120.3,2.59,-27.83,-28.05,0,*78
1497056781.19,59548,19.88,74118.5,2.61,-27.83,-28.05,0,*7C
1497056782.47,59549,19.88,74116.0,2.59,-27.83,-28.21,0,*70
1497056783.72,59550,19.88,74116.8,2.59,-27.89,-28.21,0,*72
1497056784.99,59551,19.88,74120.5,2.59,-27.83,-28.05,0,*7F
1497056786.25,59552,19.88,74116.0,2.59,-27.67,-28.05,0,*76
1497056787.5,59553,19.88,74120.5,2.59,-27.71,-28.05,0,*70
1497056788.73,59554,19.88,74120.0,2.61,-27.77,-28.05,0,*7A
1497056790.0,59555,19.88,74120.8,2.59,-27.83,-28.05,0,*7B
1497056791.25,59556,19.88,74120.3,2.59,-27.71,-27.99,0,*7F
1497056792.52,59557,19.88,74118.0,2.59,-27.83,-28.09,0,*75
1497056793.79,59558,19.88,74118.0,2.59,-27.83,-28.09,0,*7A
1497056795.07,59559,19.88,74118.8,2.59,-27.83,-28.05,0,*77
1497056796.34,59560,19.88,74118.3,2.59,-27.83,-28.21,0,*7B
1497056797.61,59561,19.88,74118.0,2.59,-27.83,-28.09,0,*70
1497056798.86,59562,19.88,74118.3,2.59,-27.71,-28.05,0,*72
1497056800.12,59563,19.88,74118.0,2.59,-27.71,-28.05,0,*73
1497056801.37,59564,19.88,74120.3,2.59,-27.55,-28.05,0,*72
1497056802.64,59565,19.88,74120.5,2.59,-27.83,-28.05,0,*78
1497056803.89,59566,19.88,74118.5,2.57,-27.83,-28.09,0,*79
1497056805.14,59567,19.88,74120.8,2.59,-27.89,-28.09,0,*7C
1497056806.39,59568,19.88,74118.3,2.59,-27.67,-28.05,0,*7F
1497056807.65,59569,19.88,74120.3,2.59,-27.67,-28.05,0,*7E
1497056808.87,59570,19.88,74118.0,2.59,-27.71,-27.89,0,*7A
1497056810.12,59571,19.88,74118.8,2.59,-27.71,-28.09,0,*7C
1497056811.35,59572,19.88,74118.5,2.57,-27.71,-28.05,0,*7D
1497056812.6,59573,19.88,74122.8,2.57,-27.83,-28.05,0,*71
1497056813.8,59574,19.88,74118.5,2.57,-27.71,-27.89,0,*70
1497056815.0,59575,19.88,74120.3,2.57,-27.67,-27.89,0,*76
1497056816.23,59576,19.88,74116.8,2.57,-27.67,-27.99,0,*74
1497056817.45,59577,19.88,74116.0,2.57,-27.71,-28.09,0,*74
1497056818.7,59578,19.88,74116.5,2.57,-27.83,-28.05,0,*7A
1497056819.93,59579,19.88,74120.8,2.57,-27.71,-27.99,0,*7C
1497056821.13,59580,19.88,74120.5,2.53,-27.71,-27.93,0,*74
1497056822.35,59581,19.88,74118.5,2.57,-27.71,-28.05,0,*71
1497056823.6,59582,19.88,74118.8,2.57,-27.83,-28.05,0,*7F
1497056824.83,59583,19.88,74118.0,2.57,-27.67,-28.09,0,*78
1497056826.07,59584,19.88,74120.5,2.57,-27.83,-28.05,0,*79
1497056827.32,59585,19.88,74118.3,2.57,-27.83,-28.05,0,*78
1497056828.54,59586,19.88,74122.0,2.57,-27.71,-28.09,0,*7A
1497056829.77,59587,19.88,74118.5,2.57,-27.71,-28.05,0,*77
1497056831.0,59588,19.88,74116.3,2.57,-27.71,-28.05,0,*78
1497056832.24,59589,19.88,74120.3,2.57,-27.83,-28.09,0,*78
1497056833.44,59590,19.88,74116.5,2.57,-27.55,-27.89,0,*7C
1497056834.67,59591,19.88,74116.5,2.57,-27.67,-28.09,0,*7B
1497056835.87,59592,19.88,74116.3,2.57,-27.55,-27.89,0,*7E
1497056837.07,59593,19.88,74116.3,2.57,-27.55,-27.89,0,*7F
1497056838.27,59594,19.88,74116.3,2.57,-27.51,-27.89,0,*7C
1497056839.49,59595,19.88,74120.8,2.57,-27.39,-27.89,0,*73
1497056840.71,59596,19.88,74122.0,2.57,-27.39,-27.71,0,*77
1497056841.99,59597,19.88,74116.0,2.59,-27.39,-27.83,0,*75
1497056843.23,59598,19.88,74120.0,2.59,-27.51,-27.83,0,*74
1497056844.46,59599,19.88,74120.5,2.61,-27.51,-27.83,0,*7E
1497056845.71,59600,19.88,74116.8,2.59,-27.67,-27.99,0,*78
1497056846.96,59601,19.88,74118.8,2.59,-27.71,-27.99,0,*7E
1497056848.24,59602,19.88,74116.0,2.59,-27.83,-28.05,0,*7A
1497056849.49,59603,19.88,74116.5,2.59,-27.71,-28.09,0,*7A
1497056850.74,59604,19.88,74118.5,2.59,-27.71,-28.05,0,*71
1497056851.96,59605,19.88,74116.8,2.59,-27.55,-27.89,0,*7D
1497056853.19,59606,19.88,74116.3,2.59,-27.51,-27.89,0,*7A
1497056854.41,59607,19.88,74118.0,2.59,-27.51,-27.89,0,*7B
1497056855.67,59608,19.88,74116.3,2.59,-27.67,-27.99,0,*70
1497056856.92,59609,19.88,74118.5,2.59,-27.89,-28.05,0,*7B
1497056858.12,59610,19.88,74114.8,2.57,-27.55,-27.89,0,*77
1497056859.37,59611,19.88,74122.0,2.59,-27.71,-28.05,0,*75
1497056860.62,59612,19.88,74118.0,2.59,-27.71,-28.09,0,*7A
1497056861.88,59613,19.88,74118.8,2.59,-27.67,-27.99,0,*7A
1497056863.13,59614,19.88,74116.5,2.59,-27.71,-28.05,0,*70
1497056864.4,59615,19.88,74114.0,2.59,-27.83,-28.09,0,*70
1497056865.65,59616,19.88,74116.3,2.59,-27.89,-28.05,0,*75
1497056866.9,59617,19.88,74114.0,2.59,-27.89,-28.09,0,*78
1497056868.13,59618,19.88,74116.5,2.61,-27.77,-28.05,0,*71
1497056869.38,59619,19.88,74116.8,2.59,-27.71,-28.09,0,*71
1497056870.63,59620,19.88,74116.8,2.59,-27.67,-27.99,0,*7A
1497056871.86,59621,19.88,74118.8,2.59,-27.55,-27.89,0,*7B
1497056873.06,59622,19.88,74116.5,2.61,-27.67,-27.93,0,*79
1497056874.31,59623,19.88,74116.3,2.59,-27.51,-27.99,0,*7C
1497056875.56,59624,19.88,74118.0,2.59,-27.67,-27.99,0,*7E
1497056876.82,59625,19.88,74116.3,2.59,-27.67,-27.99,0,*7F
1497056878.04,59626,19.88,74118.5,2.59,-27.55,-27.89,0,*7C
1497056879.24,59627,19.88,74116.5,2.57,-27.67,-27.89,0,*72
1497056880.44,59628,19.88,74118.5,2.57,-27.55,-27.89,0,*7C
1497056881.67,59629,19.88,74120.0,2.59,-27.51,-27.89,0,*77
1497056882.9,59630,19.88,74116.8,2.59,-27.67,-27.89,0,*7A
1497056884.15,59631,19.88,74114.0,2.59,-27.71,-28.09,0,*7B
1497056885.42,59632,19.88,74116.3,2.59,-27.83,-27.99,0,*73
1497056886.65,59633,19.88,74112.3,2.59,-27.67,-27.89,0,*79
1497056887.87,59634,19.88,74116.8,2.59,-27.55,-27.89,0,*7F
1497056889.1,59635,19.88,74118.3,2.59,-27.55,-27.89,0,*7E
1497056890.32,59636,19.88,74118.8,2.59,-27.51,-27.89,0,*79
1497056891.54,59637,19.88,74116.0,2.61,-27.51,-27.83,0,*79
1497056892.77,59638,19.88,74116.8,2.59,-27.51,-27.89,0,*77
1497056893.99,59639,19.88,74116.5,2.59,-27.55,-27.89,0,*72
1497056895.25,59640,19.88,74118.5,2.59,-27.71,-27.99,0,*7B
1497056896.47,59641,19.88,74118.8,2.61,-27.51,-27.83,0,*78
1497056897.72,59642,19.88,74114.5,2.59,-27.55,-27.99,0,*7F
1497056898.94,59643,19.88,74116.3,2.61,-27.77,-27.99,0,*75
1497056900.19,59644,19.88,74118.0,2.61,-27.83,-28.09,0,*7F
1497056901.44,59645,19.88,74114.8,2.59,-27.71,-28.05,0,*74
1497056902.67,59646,19.88,74118.0,2.59,-27.67,-27.89,0,*7B
1497056903.9,59647,19.88,74118.5,2.59,-27.67,-27.89,0,*7A
1497056905.15,59648,19.88,74116.8,2.59,-27.71,-27.99,0,*73